Location: Ciserano
(45.5833°N, 9.6000°E)
Time: 15:53:43
(UTC+00:00)

SJ 16-02 - Pass Details

Date: 24 April 2021
Orbit: 605 x 617 km, 75.0° (Epoch: 11 May)

Event Time Altitude Azimuth Distance (km) Brightness Sun altitude
Exits shadow 01:08:53 31° 318° (NW) 1,081 2.7 -26.6°
Drops below altitude 10° 01:12:12 10° 3° (N) 1,989 4.7 -26.3°
Sets 01:14:38 0° 13° (NNE) 2,900 6.0 -26.0°
